Printer-friendly version

IAU Minor Planet Center

Minor Planet Center

MPEC 2008-U34 : 2008 UV

The following Minor Planet Electronic Circular may be linked-to from your own Web pages, but must not otherwise be redistributed electronically.

A form allowing access to any MPEC is at the bottom of this page.


Read MPEC 2008-U33 Read MPEC 2008-U35


M.P.E.C. 2008-U34                                Issued 2008 Oct. 22, 01:36 UT

     The Minor Planet Electronic Circulars contain information on unusual
         minor planets and routine data on comets.  They are published
   on behalf of Commission 20 of the International Astronomical Union by the
          Minor Planet Center, Smithsonian Astrophysical Observatory,
                          Cambridge, MA 02138, U.S.A.

             Prepared using the Tamkin Foundation Computer Network

                              MPC@CFA.HARVARD.EDU
          URL http://www.cfa.harvard.edu/iau/mpc.html  ISSN 1523-6714

                                    2008 UV

Observations:
     K08U00V  C2008 10 21.35391 01 56 23.42 +03 37 13.8          20.3 V EU034G96
     K08U00V  C2008 10 21.35914 01 56 25.69 +03 36 28.3          19.8 V EU034G96
     K08U00V  C2008 10 21.36434 01 56 27.92 +03 35 43.5          20.3 V EU034G96
     K08U00V  C2008 10 21.36954 01 56 30.12 +03 34 57.8          20.0 V EU034G96
     K08U00V* C2008 10 21.40436 01 56 45.16 +03 29 54.8          20.5 V EU034G96
     K08U00V  C2008 10 21.40472 01 56 45.31 +03 29 51.7          20.6 V EU034G96
     K08U00V  C2008 10 21.40510 01 56 45.49 +03 29 48.2          20.0 V EU034G96
     K08U00V  C2008 10 21.40546 01 56 45.63 +03 29 45.2          20.5 V EU034G96
     K08U00V  C2008 10 21.42269 01 56 53.16 +03 27 15.0          20.4 V EU034G96
     K08U00V  C2008 10 21.42305 01 56 53.26 +03 27 11.5          20.4 V EU034G96
     K08U00V  C2008 10 21.42341 01 56 53.48 +03 27 08.4          20.1 V EU034G96
     K08U00V  C2008 10 21.42379 01 56 53.62 +03 27 05.4          20.0 V EU034G96
     K08U00V  C2008 10 21.43024 01 56 56.43 +03 26 09.3          20.1 V EU034G96
     K08U00V  C2008 10 21.43111 01 56 56.83 +03 26 01.8          20.3 V EU034G96
     K08U00V  C2008 10 21.43199 01 56 57.19 +03 25 54.4          20.2 V EU034G96
     K08U00V  C2008 10 21.43286 01 56 57.58 +03 25 46.6          19.9 V EU034G96
     K08U00V  C2008 10 21.43405 01 56 58.09 +03 25 36.3          19.8 V EU034G96
     K08U00V  C2008 10 21.43448 01 56 58.27 +03 25 32.7          19.8 V EU034G96
     K08U00V  C2008 10 21.43492 01 56 58.48 +03 25 28.4          19.7 V EU034G96
     K08U00V  C2008 10 21.43535 01 56 58.66 +03 25 25.1          19.4 V EU034G96
     K08U00V  C2008 10 21.47901 01 57 17.95 +03 19 05.1          20.5 V EU034G96
     K08U00V  C2008 10 21.47947 01 57 18.16 +03 19 01.1          20.9 V EU034G96
     K08U00V  C2008 10 21.47991 01 57 18.33 +03 18 56.4          20.2 V EU034G96
     K08U00V  C2008 10 21.91418 02 00 46.04 +02 15 59.1                 EU034J95
     K08U00V  C2008 10 21.92405 02 00 50.31 +02 14 34.3                 EU034J95
     K08U00V  C2008 10 21.93360 02 00 54.46 +02 13 13.0          19.9 R EU034J95

Observer details:
G96 Mt. Lemmon Survey.  Observer A. R. Gibbs.  Measurers E. C. Beshore,
    A. Boattini, G. J. Garradd, A. R. Gibbs, A. D. Grauer, R. E. Hill,
    R. A. Kowalski, S. M. Larson, R. H. McNaught.  1.5-m reflector + CCD.
J95 Great Shefford.  Observer P. Birtwhistle.  0.40-m f/6.0 Schmidt-Cassegrain
    + CCD.

Orbital elements:
2008 UV                                                  Earth MOID = 0.0818 AU
Epoch 2008 Nov. 30.0 TT = JDT 2454800.5                 MPC
M  18.06468              (2000.0)            P               Q
n   0.47576705     Peri.  184.36226     +0.86702170     -0.48869700
a   1.6250740      Node   205.62003     +0.46368642     +0.86275304
e   0.3369786      Incl.   12.99116     +0.18239594     +0.12973990
P   2.07           H   24.9           G   0.15           U   8
Residuals in seconds of arc
081021 G96  0.2-  0.2-    081021 G96  0.4-  0.4-    081021 G96  0.1+  0.2-
081021 G96  0.2+  0.2-    081021 G96  0.5+  0.4-    081021 G96  0.1-  0.3+
081021 G96  0.2+  0.3+    081021 G96  0.1+  0.1-    081021 G96  0.0   0.4+
081021 G96  0.3-  0.1-    081021 G96  0.0   0.0     081021 G96  0.1+  0.4+
081021 G96  0.1-  0.1+    081021 G96  0.3+  0.0     081021 G96  0.3-  0.5-
081021 G96  0.2-  0.1+    081021 G96  0.0   0.3+    081021 J95  0.1+  0.3-
081021 G96  0.1+  0.1-    081021 G96  0.1+  0.1+    081021 J95  0.1-  0.3-
081021 G96  0.2-  0.1+    081021 G96  0.1-  0.1+    081021 J95  0.0   0.5+
081021 G96  0.4+  0.1-    081021 G96  0.2-  0.3+

Ephemeris:
2008 UV                  a,e,i = 1.63, 0.34, 13                  q = 1.0775
Date    TT    R. A. (2000) Decl.     Delta      r     Elong.  Phase     V
2008 10 21    01 53.66   +04 29.6    0.0827   1.078   173.3     6.2    20.1
2008 10 22    02 01.38   +02 05.1    0.0834   1.077   170.4     8.9    20.3
2008 10 23    02 08.90   -00 16.2    0.0844   1.077   167.5    11.5    20.4
2008 10 24    02 16.21   -02 33.3    0.0856   1.077   164.7    14.1    20.5
2008 10 25    02 23.29   -04 45.3    0.0871   1.078   162.1    16.5    20.6
2008 10 26    02 30.13   -06 51.5    0.0889   1.078   159.5    18.8    20.8
2008 10 27    02 36.73   -08 51.3    0.0909   1.078   157.1    21.0    20.9
2008 10 28    02 43.07   -10 44.5    0.0931   1.079   154.8    23.1    21.0
2008 10 29    02 49.16   -12 30.7    0.0955   1.079   152.6    25.1    21.1
2008 10 30    02 54.99   -14 10.1    0.0981   1.080   150.6    26.9    21.2
2008 10 31    03 00.56   -15 42.6    0.101    1.080   148.7    28.5    21.3
2008 11 01    03 05.88   -17 08.4    0.104    1.081   146.9    30.1    21.5
2008 11 02    03 10.96   -18 27.8    0.107    1.082   145.3    31.5    21.6
2008 11 03    03 15.79   -19 41.1    0.110    1.083   143.7    32.8    21.7
2008 11 04    03 20.39   -20 48.4    0.113    1.084   142.3    34.0    21.8
2008 11 05    03 24.77   -21 50.3    0.117    1.085   141.0    35.1    21.9
2008 11 06    03 28.93   -22 46.9    0.120    1.086   139.8    36.1    22.0
2008 11 07    03 32.87   -23 38.7    0.124    1.087   138.7    37.0    22.0
2008 11 08    03 36.62   -24 25.9    0.127    1.088   137.7    37.8    22.1
2008 11 09    03 40.17   -25 08.9    0.131    1.090   136.7    38.5    22.2
2008 11 10    03 43.54   -25 47.9    0.135    1.091   135.9    39.2    22.3

Timothy B. Spahr             (C) Copyright 2008 MPC           M.P.E.C. 2008-U34

Read MPEC 2008-U33 Read MPEC 2008-U35


MPEC number:

Enter an
MPEC number in one of the following forms:
  • 1997-B01 (the full form)
  • J97B01 (the packed version of the full form)
  • B01 (the abbreviated form)

Valid HTML 4.01!